Address 0xb4e4dd051162e567336ddae9e86eb03c1f8d5c04 3

 
Txn Hash
Block
From
To
Value [Txn Fee]
0x84e129cce524d0a7104a8752a5099a879453f5ad908c02c09943973622e361c122600282021-10-15 22:13:491 day 10 hrs ago0xb4e4dd051162e567336ddae9e86eb03c1f8d5c04OUT 0x36cac50f3f3aa643b01618189eef94c613b347fe0 ETH0.001213115158 ETH
0x126eec9d650ef07d0cd5be3db51e9d99b702ba419c8a41de0f8ddf5d1ab4697f22600182021-10-15 22:11:591 day 10 hrs ago0xb4e4dd051162e567336ddae9e86eb03c1f8d5c04OUT 0xde31e75182276738b0c025daa8f80020a4f2fbfe0 ETH0.001035172791 ETH
0xf8ec4398447b9a266d0f83a59435137486f8d3edb9a4297d7a9b7c60114b822922599622021-10-15 22:08:211 day 10 hrs ago0xb4e4dd051162e567336ddae9e86eb03c1f8d5c04OUT 0x36cac50f3f3aa643b01618189eef94c613b347fe0 ETH0.001235093926 ETH
0x6eef3ec24c0cf267fd8d54d2638506c4843f477904c43179546a101b2e7a15d822598712021-10-15 22:01:311 day 10 hrs ago0xb4e4dd051162e567336ddae9e86eb03c1f8d5c04OUT 0xde31e75182276738b0c025daa8f80020a4f2fbfe0 ETH0.001030952849 ETH
0x32ae5d6090601f8892038b0824cb321758224678318dbc34d33b2a5239c97b0b21668472021-10-12 21:40:554 days 10 hrs ago0xb4e4dd051162e567336ddae9e86eb03c1f8d5c04OUT 0xe1b8800c33672a495ae2cbc882c14e7c9438166c1.2 ETH0.000792402362 ETH
0x5360bbae858c213dd42c5f0847a1da6a741e96511534c8e216afaffc074b54b321593842021-10-12 16:23:304 days 16 hrs ago0xb4e4dd051162e567336ddae9e86eb03c1f8d5c04OUT SushiSwap: Router0 ETH0.00095805406 ETH
0x12ba91dfe1a868e1ad909820142f60d9b7937e812b8b11a1bf1bb6ceaa19779e20186632021-10-08 10:32:048 days 22 hrs ago0xb4e4dd051162e567336ddae9e86eb03c1f8d5c04OUT 0x841ce48f9446c8e281d3f1444cb859b4a6d0738c0 ETH0.000872626992 ETH
0xf1a1b54d67527ebc89fe9fdb57525ffb45d57a643145781b7843a42714e2435e20186122021-10-08 10:29:168 days 22 hrs ago0xb4e4dd051162e567336ddae9e86eb03c1f8d5c04OUT 0x841ce48f9446c8e281d3f1444cb859b4a6d0738c0 ETH0.002369129752 ETH
0x284d9d496b47514ed9064df0a85c65c458d2f952269282ed53c4ab7aa649648e20186072021-10-08 10:29:168 days 22 hrs ago0xb4e4dd051162e567336ddae9e86eb03c1f8d5c04OUT 0x82af49447d8a07e3bd95bd0d56f35241523fbab10 ETH0.001075642053 ETH
0x02bb02195b57a6afd8baace64355d4594114d63075796f26c6b364fe6955b29b20143532021-10-08 7:02:479 days 1 hr ago0xb4e4dd051162e567336ddae9e86eb03c1f8d5c04OUT SushiSwap: Router0 ETH0.001629232752 ETH
0x056263f5ea122e42f2feffcb64a016e7158979b73c19e2eac710e01a8b037b5220143422021-10-08 7:02:109 days 1 hr ago0xb4e4dd051162e567336ddae9e86eb03c1f8d5c04OUT 0xf85cd66461088284480a455d2b2933e69b789baf0 ETH0.001015521666 ETH
0xadb77e4c13554c950e00c046025eec5267e1328b46785f26eb53b269548bd77a19082382021-10-04 11:18:1112 days 21 hrs ago0xb4e4dd051162e567336ddae9e86eb03c1f8d5c04OUT0x2f2a2543b76a4166549f7aab2e75bef0aefc5b0f0 ETH0.000465505135 ETH
0xd550869e067348b3cf2fc36ab63baa247c3b6d9c14fcfaf8c684f5f384b6117519069762021-10-04 10:22:1012 days 22 hrs ago0xb4e4dd051162e567336ddae9e86eb03c1f8d5c04OUT0x2f2a2543b76a4166549f7aab2e75bef0aefc5b0f0 ETH0.000596846347 ETH
0xbed5b70a6283ef77db4dcdc2966b257df2d94bb20a2e25aa6a1dd9b9378f854d19067022021-10-04 10:09:4212 days 22 hrs ago0xb4e4dd051162e567336ddae9e86eb03c1f8d5c04OUT0x2f2a2543b76a4166549f7aab2e75bef0aefc5b0f0 ETH0.000599555811 ETH
0xe1b5a69c6937e3d5c5d30aabc3c13ca44bbaa705e8bf82997d2b90db04173d7019065282021-10-04 10:05:3012 days 22 hrs ago0xb4e4dd051162e567336ddae9e86eb03c1f8d5c04OUT Uniswap V3: Router26 ETH0.000722054432 ETH
0x1ff798e6f4ac9fe539b458184e98f80c39697c548eb4c1ccf8a140cd8a047dca19064802021-10-04 10:02:4312 days 22 hrs ago0xb4e4dd051162e567336ddae9e86eb03c1f8d5c04OUT SushiSwap: Router0 ETH0.00072058005 ETH
0xacfbca21c5326b985a644ebe68fdb2035c750bc83bc04fa9bd55257a78cc78cd19064672021-10-04 10:02:4312 days 22 hrs ago0xb4e4dd051162e567336ddae9e86eb03c1f8d5c04OUT 0x32e5594f14de658b0d577d6560fa0d9c6f1aa7240 ETH0.000429726571 ETH
0x532f3a93af18a5a4bc06670db57dce411f98d33a26659e2ce8fdec7a84221b3819043232021-10-04 8:35:3212 days 23 hrs ago0xb4e4dd051162e567336ddae9e86eb03c1f8d5c04OUT 0x32e5594f14de658b0d577d6560fa0d9c6f1aa7240 ETH0.000454383829 ETH
0xe5c9b9ab9275f909305f1e83056a7c5fcb22e8aa7928e57ab2378bd357f7f37519043192021-10-04 8:35:0012 days 23 hrs ago0xb4e4dd051162e567336ddae9e86eb03c1f8d5c04OUT 0x32e5594f14de658b0d577d6560fa0d9c6f1aa7240 ETH0.000434311289 ETH
0x29e79f0fe9af3857ab22705e1fff8a9ad386fff107fbe4bffb7690638b58cda918743212021-10-03 7:49:4214 days 44 mins ago0xb4e4dd051162e567336ddae9e86eb03c1f8d5c04OUT 0x32e5594f14de658b0d577d6560fa0d9c6f1aa7240 ETH0.000452561937 ETH
0x94c52b06d5481fe3859299261050ea4636c8271c2491b2ba18f9b567cf77338e18743182021-10-03 7:49:4214 days 44 mins ago0xb4e4dd051162e567336ddae9e86eb03c1f8d5c04OUT 0x32e5594f14de658b0d577d6560fa0d9c6f1aa7240 ETH0.000432569879 ETH
0x8396cba6d2498af1464c1b45b0ae27044451f7a0ad88838cacd4684e300eb53018541302021-10-02 14:18:0014 days 18 hrs ago0xb4e4dd051162e567336ddae9e86eb03c1f8d5c04OUT 0xde31e75182276738b0c025daa8f80020a4f2fbfe0 ETH0.00063506029 ETH
0x4468e9a8c6e29857200d9b202ae3d0e9b49b7e33658af961939638eaf5707da118114552021-10-01 7:26:4616 days 1 hr ago0xb4e4dd051162e567336ddae9e86eb03c1f8d5c04OUT 0x32e5594f14de658b0d577d6560fa0d9c6f1aa7240 ETH0.000574971733 ETH
0xbd81a98ddeb1c4b6a67f74ffa7eedf8a8ebf79bfd384564ddabc0f1c4bbc1c5218114472021-10-01 7:25:4516 days 1 hr ago0xb4e4dd051162e567336ddae9e86eb03c1f8d5c04OUT 0x32e5594f14de658b0d577d6560fa0d9c6f1aa7240 ETH0.000551839117 ETH
0x466a8f0936384c70109a0350d8ddf18d2ac4c5c2d8188e36f5eb15410145cf0417822122021-09-30 9:25:4116 days 23 hrs ago0xb4e4dd051162e567336ddae9e86eb03c1f8d5c04OUT 0x32e5594f14de658b0d577d6560fa0d9c6f1aa7240 ETH0.000539857719 ETH
[ Download CSV Export 
Parent Txn Hash Block From To Value
Loading

Contract Name:
0 ETH

Compiler Version
0

Optimization Enabled:
0 ETH

Other Settings:
-NA-
Block Transaction Gas Used Reward
Age Block Fee Address BC Fee Address Voting Power Jailed Incoming
Block Uncle Number Difficulty Gas Used Reward
Loading
Loading
Make sure to use the "Vote Down" button for any spammy posts, and the "Vote Up" for interesting conversations.